Location: Unspecified
(51.6250°N, 0.8230°E)
Time: 11:53:00
(UTC+01:00)

CZ-3 Stage 3 - Pass Details

Date: 04 August 2020
Orbit: 426 x 34763 km, 31.1° (Epoch: 22 September)

Event Time Altitude Azimuth Distance (km) Brightness Sun altitude
Rises 01:03:24 0° 94° (E) 20,399 9.7 -21.2°
Reaches altitude 10° 02:02:13 10° 85° (E) 28,900 10.7 -20.0°
Maximum altitude 07:12:25 36° 94° (E) 31,665 12.1 14.8°
Drops below altitude 10° 09:14:21 10° 90° (E) 16,175 10.5 33.5°
Sets 09:25:29 0° 88° (E) 14,557 9.9 35.2°
